Wind_Speed
5 5 5 6 6 7 3 3 5 8 9 9 7 8 7 6 6 6 5 5 4 4 4 4 3 3 4 4 5 6 7 7 7 7 7 7 7 7 7 7 7 7 6 6 6 6 5 5 5
7 7 7 7 8 11 9 3 6 9 11 11 9 8 7 7 6 6 5 5 5 5 5 4 5 5 5 6 7 7 8 8 8 8 9 9 9 9 9 9 9 9 9 9 8 8 7 7 6
10 10 9 9 8 11 15 9 10 11 12 12 11 9 8 7 7 6 6 5 5 5 5 5 6 6 7 8 8 9 9 9 9 10 10 11 11 11 11 11 11 11 11 10 10 9 9 9 8
13 13 12 11 9 12 14 15 15 13 14 12 13 11 9 7 7 6 6 5 5 5 5 6 7 8 8 9 10 10 11 11 11 11 12 12 13 13 13 13 13 13 13 12 12 11 11 11 10
15 15 15 13 13 17 16 15 16 17 18 12 13 11 9 7 7 6 6 6 6 6 7 8 8 9 10 10 11 12 12 12 13 14 14 14 15 14 14 15 15 15 15 14 13 13 13 12 12
17 17 16 14 16 20 20 18 17 20 19 14 13 11 10 7 7 7 7 6 7 7 8 9 10 11 11 12 13 14 14 14 15 15 16 17 17 17 17 16 17 17 16 16 15 15 14 14 14
19 19 17 15 17 20 21 22 21 24 21 18 15 14 13 9 8 8 8 8 8 8 10 11 12 12 13 14 15 16 16 17 17 18 18 19 19 19 19 19 19 19 19 18 18 17 16 16 15
20 20 18 15 16 20 23 26 24 26 24 21 20 18 14 10 8 9 10 10 11 11 12 13 14 14 14 15 17 18 18 19 20 20 20 20 20 20 21 21 22 22 21 21 20 19 19 19 18
19 19 16 13 16 20 25 26 24 24 23 24 23 20 17 12 9 9 10 12 13 13 14 15 15 15 16 17 18 19 20 21 22 23 23 23 23 23 22 22 24 23 23 23 22 22 22 21 21
16 17 16 17 22 25 28 26 23 22 24 26 25 20 15 12 10 11 12 14 15 16 16 16 16 16 17 18 19 20 21 22 21 22 22 24 25 24 23 23 24 24 24 23 23 23 24 23 23
13 15 18 21 24 27 29 27 21 23 26 24 20 17 13 13 14 13 14 15 17 18 18 17 16 17 18 19 20 20 21 21 20 19 20 21 23 22 22 22 21 22 23 23 23 24 24 24 23
12 12 15 19 22 24 24 23 24 26 28 22 15 10 10 14 16 15 16 16 17 18 18 18 17 17 18 19 19 19 20 20 19 20 21 21 21 21 21 21 21 22 22 23 24 24 23 24 23
10 11 12 14 15 17 18 20 22 25 24 23 15 12 13 16 17 17 17 17 18 18 18 19 18 18 18 18 18 19 19 19 19 19 19 20 20 20 21 21 21 21 21 21 22 23 24 23 22
7 8 9 10 10 12 13 15 20 21 19 15 14 14 16 17 17 17 17 17 17 18 18 18 17 17 17 18 17 18 18 18 18 18 18 19 19 19 20 21 21 21 20 20 22 23 23 23 23
9 9 11 11 10 9 9 13 18 16 18 16 16 16 17 18 18 18 17 16 16 16 16 16 15 15 15 16 17 17 18 17 18 18 18 19 20 20 21 21 21 21 21 21 22 23 23 23 23
12 13 13 12 11 10 11 15 17 14 16 16 17 17 17 18 19 18 17 16 15 15 15 14 13 14 14 15 16 17 17 17 17 18 19 20 21 21 22 22 22 23 23 23 23 23 23 23 23
16 17 15 14 12 13 15 17 16 12 14 14 13 15 16 17 17 16 16 16 14 14 14 13 13 13 13 14 15 16 17 17 18 18 19 20 21 22 22 22 22 23 23 23 23 23 23 24 24
15 14 14 14 14 14 15 17 14 11 10 10 12 15 16 15 14 15 15 14 13 12 12 12 13 13 13 14 15 16 16 17 18 18 19 20 21 21 22 22 21 22 22 22 23 23 23 24 24
11 11 12 11 14 14 13 15 13 10 6 8 11 13 14 13 12 13 12 13 11 11 11 11 11 12 12 13 15 16 16 17 18 18 19 20 20 20 21 21 21 21 21 21 22 23 23 24 24
11 12 13 13 13 12 11 12 10 9 5 4 9 11 10 10 10 11 10 10 10 11 10 10 11 12 13 14 15 16 17 17 18 18 18 19 20 20 20 20 21 21 21 21 21 22 23 24 24
11 12 12 12 12 11 11 10 11 10 4 2 4 5 4 6 8 8 7 7 8 8 9 10 11 12 12 13 15 16 17 17 18 18 18 19 19 19 20 20 20 21 21 21 21 21 22 23 24
13 12 10 9 10 11 11 11 10 11 8 4 2 2 2 2 4 5 6 7 7 8 9 9 10 11 12 14 16 17 17 18 19 19 19 19 19 20 20 21 21 21 21 22 22 22 23 23 24
12 9 8 8 9 10 11 12 10 11 10 6 4 2 0 1 2 3 4 5 6 6 7 8 10 11 13 15 16 17 19 19 20 20 21 21 21 21 22 22 23 23 23 24 24 24 24 24 25
10 9 10 11 11 8 9 11 12 12 12 8 6 3 1 1 2 2 3 4 6 7 8 9 11 13 14 16 17 18 20 21 21 22 22 23 23 23 23 23 24 25 25 25 26 26 26 27 27
11 11 15 16 15 10 9 8 11 13 11 9 6 4 3 3 4 4 5 6 8 9 10 10 12 14 15 17 18 19 20 21 22 23 24 24 24 24 24 24 25 25 26 27 28 28 29 29 29
11 10 11 14 15 12 6 7 12 12 10 9 7 6 5 5 6 7 8 8 9 10 11 12 14 15 16 17 19 20 21 22 23 23 24 24 25 25 25 26 26 27 28 29 29 30 30 31 31
11 9 8 10 10 10 7 9 10 10 10 10 9 8 8 9 9 10 10 10 10 12 13 14 14 16 17 18 19 21 22 23 24 24 25 25 25 26 26 27 28 29 30 31 32 32 32 33 33
10 9 9 8 9 8 10 8 9 12 15 14 13 12 11 11 11 11 12 12 13 13 14 14 15 16 18 19 20 21 22 23 24 24 25 26 26 27 28 29 30 31 32 33 33 34 34 34 35
10 9 9 9 9 9 14 13 11 15 18 18 16 14 14 13 13 13 13 14 14 14 15 15 16 18 19 20 21 22 23 24 24 25 26 27 27 29 30 31 33 34 34 35 35 36 36 36 36
11 11 11 11 10 9 11 12 13 15 19 20 19 18 16 16 16 16 16 16 16 16 16 16 17 18 20 21 22 23 23 24 25 26 27 28 29 30 31 33 34 35 36 37 37 37 37 37 37
Wind_Direction
342 329 321 314 300 288 243 194 279 290 297 300 295 290 295 290 282 284 287 283 284 287 293 300 305 304 305 303 303 303 305 301 297 296 296 292 288 287 287 288 289 293 297 302 306 310 315 319 322
312 304 297 297 295 299 296 273 282 291 296 297 294 292 297 292 289 279 283 280 281 285 289 298 306 306 306 305 302 302 302 301 297 294 294 291 288 287 286 287 288 291 292 293 296 298 298 300 300
294 290 287 288 290 296 297 300 291 291 287 285 284 287 293 297 296 290 291 287 287 289 291 298 306 307 306 304 301 300 301 300 297 294 293 290 289 289 287 287 289 291 290 290 290 291 290 288 288
286 283 277 274 271 264 270 282 284 284 278 269 274 277 285 299 299 297 297 293 296 299 304 306 308 305 304 304 302 300 300 299 297 295 294 294 293 292 289 286 287 288 287 286 285 286 286 283 281
280 277 273 271 268 264 260 262 269 271 263 254 265 267 275 287 297 300 305 302 303 305 306 309 309 306 303 304 304 300 297 296 295 294 293 293 292 292 290 285 284 285 284 282 281 281 281 279 279
276 272 269 272 279 274 272 266 265 266 261 258 260 269 274 277 295 304 307 308 308 308 310 311 310 306 302 300 298 296 294 292 291 291 290 291 289 288 287 285 280 280 280 279 277 276 276 277 277
273 269 266 262 267 275 274 271 269 267 262 263 267 269 272 273 288 301 308 310 313 316 312 312 308 303 299 297 293 292 289 288 287 286 285 285 285 283 282 281 278 276 274 273 273 271 272 274 276
272 268 265 261 264 266 267 266 263 264 261 263 269 272 267 274 285 296 303 307 310 314 313 311 307 302 298 294 290 289 287 287 287 284 282 282 281 279 278 276 274 272 270 269 269 269 270 271 271
270 264 261 256 255 257 259 258 262 263 259 262 262 263 264 271 277 290 299 303 307 309 309 308 305 301 296 293 290 289 287 286 283 283 281 280 277 276 277 277 275 271 269 267 266 267 269 269 267
270 261 253 246 243 242 252 262 265 263 259 254 251 251 257 273 277 284 293 298 302 306 306 306 303 298 294 291 289 290 289 288 286 286 284 283 282 280 281 284 281 272 270 267 266 268 269 268 265
278 260 253 246 248 249 252 258 260 258 255 244 232 238 251 274 276 280 288 292 297 302 304 302 300 297 295 293 291 293 292 289 292 293 291 290 289 286 285 289 287 281 272 266 266 267 268 267 264
297 284 272 262 260 261 259 256 251 249 248 256 254 246 267 278 280 280 284 288 294 297 299 299 299 297 297 296 294 294 294 294 295 295 297 297 295 291 289 290 289 287 281 274 270 269 269 268 266
320 307 297 286 278 272 266 259 255 254 254 263 264 265 269 275 278 282 287 289 294 295 296 296 297 297 296 297 297 297 297 298 297 295 298 299 296 293 293 291 295 293 287 281 276 274 274 274 270
336 315 311 300 298 289 275 262 256 256 266 269 270 267 266 271 275 282 284 287 291 292 294 295 297 295 296 299 300 300 298 299 298 296 297 301 301 298 294 294 294 292 288 285 281 278 277 275 272
360 346 334 321 309 301 288 263 251 249 259 261 265 268 266 270 275 279 282 282 290 292 295 296 295 293 295 297 298 299 298 298 299 299 299 300 300 298 297 295 295 292 290 288 286 282 279 278 275
357 338 323 323 322 314 298 273 260 241 252 254 258 262 266 269 274 276 277 283 288 290 292 293 294 293 295 296 298 298 298 299 298 299 300 299 299 298 296 294 294 291 290 288 286 284 281 278 276
349 332 324 325 327 318 304 292 284 256 248 253 259 262 264 266 269 271 274 278 282 283 287 291 293 293 293 296 301 303 303 304 303 303 303 302 301 301 299 297 295 292 291 289 286 283 280 278 276
330 322 317 315 317 314 305 301 309 293 263 264 267 265 262 261 265 269 273 274 275 279 284 288 293 296 297 300 305 307 307 307 308 309 307 305 304 303 302 301 297 294 292 290 287 285 282 280 277
318 317 308 307 313 315 310 298 304 310 294 278 279 274 264 260 264 267 268 268 268 274 280 286 293 299 303 305 307 309 310 311 312 312 311 310 309 308 306 303 301 298 296 293 290 287 284 282 279
319 317 318 316 321 321 312 305 309 317 305 280 281 282 258 254 257 257 262 259 265 272 281 289 295 302 306 310 314 316 317 318 317 316 316 315 313 311 308 306 304 302 300 298 295 291 287 284 282
311 311 319 322 322 317 321 325 338 342 312 297 286 287 262 249 249 254 258 262 270 280 289 294 299 305 312 319 322 323 323 324 324 322 321 319 317 316 314 311 308 306 304 301 299 297 294 290 286
306 311 314 317 314 315 327 329 350 1 6 19 355 305 264 244 231 243 256 264 277 288 295 299 307 313 319 323 326 328 328 328 328 327 325 322 320 318 316 314 311 308 306 304 302 300 297 294 291
308 311 311 296 289 295 320 331 350 354 4 24 20 14 267 227 227 254 266 278 290 300 305 311 316 320 324 327 328 330 331 331 330 328 326 323 321 318 315 312 311 309 307 305 303 301 299 296 293
314 307 307 300 298 302 350 345 349 356 1 10 5 351 311 278 283 294 303 313 314 315 316 321 324 328 330 331 332 332 332 331 330 329 327 325 322 318 314 310 309 308 307 306 304 302 299 297 294
309 310 312 327 341 9 11 343 337 341 347 351 347 339 329 310 310 316 319 321 318 318 321 326 327 329 330 331 332 332 331 330 329 328 326 324 322 319 316 313 311 309 308 306 305 303 300 298 295
306 303 312 330 339 336 341 321 330 336 339 337 335 331 325 319 318 322 326 325 324 325 327 329 331 331 330 330 330 330 329 329 328 326 324 322 321 319 318 317 315 313 310 308 306 304 302 299 296
294 285 291 303 310 308 299 305 320 336 335 328 321 320 322 323 325 327 326 325 327 328 329 330 330 329 329 328 327 327 328 327 326 324 323 323 322 321 320 318 316 314 312 309 307 304 302 299 296
295 281 275 273 301 314 302 281 286 323 329 325 318 316 317 318 319 321 323 326 327 326 326 327 328 327 327 326 325 326 325 324 323 323 323 322 322 321 320 320 318 316 313 310 308 305 302 299 296
283 292 280 265 260 285 311 318 315 318 323 322 319 315 316 318 319 320 322 322 320 320 321 323 324 324 324 323 323 323 323 323 323 323 323 323 322 320 320 319 318 316 314 312 309 306 303 301 298
257 262 269 274 270 276 291 297 295 307 314 316 319 316 315 316 316 317 318 316 315 315 317 318 319 320 320 319 319 320 320 321 322 323 323 322 320 320 319 319 318 317 315 313 311 308 305 302 299
Height
5920 5920 5919 5919 5919 5917 5912 5910 5914 5915 5913 5913 5913 5912 5911 5911 5911 5912 5910 5910 5910 5910 5910 5910 5910 5910 5911 5911 5911 5911 5910 5910 5910 5910 5909 5909 5909 5908 5908 5907 5907 5907 5906 5906 5905 5905 5904 5904 5903
5919 5919 5919 5918 5918 5914 5907 5906 5911 5913 5913 5912 5911 5910 5910 5910 5910 5910 5909 5909 5909 5909 5909 5909 5909 5910 5910 5910 5910 5910 5910 5909 5909 5909 5909 5908 5908 5908 5907 5907 5906 5906 5906 5905 5905 5905 5904 5904 5903
5917 5916 5917 5917 5916 5914 5909 5907 5911 5910 5911 5910 5909 5909 5909 5908 5909 5909 5908 5909 5909 5909 5909 5909 5909 5909 5909 5909 5909 5909 5909 5909 5908 5908 5908 5907 5907 5907 5906 5906 5906 5905 5905 5904 5904 5904 5903 5903 5903
5915 5915 5915 5916 5915 5913 5911 5910 5909 5908 5908 5906 5906 5907 5907 5907 5908 5908 5907 5908 5908 5908 5908 5908 5908 5908 5908 5908 5908 5908 5908 5907 5907 5907 5906 5906 5906 5905 5905 5905 5904 5904 5903 5903 5902 5902 5902 5902 5901
5912 5912 5913 5912 5911 5908 5905 5907 5908 5907 5904 5901 5901 5902 5904 5905 5906 5906 5906 5907 5907 5907 5907 5907 5907 5907 5907 5907 5907 5906 5906 5906 5906 5905 5905 5904 5904 5904 5903 5903 5902 5902 5901 5901 5901 5900 5900 5900 5900
5909 5909 5909 5909 5909 5907 5904 5903 5905 5904 5899 5895 5897 5899 5901 5903 5904 5904 5904 5905 5905 5905 5905 5905 5905 5905 5905 5905 5905 5905 5904 5904 5904 5903 5903 5902 5902 5901 5901 5900 5900 5899 5899 5899 5898 5898 5898 5898 5898
5906 5905 5905 5906 5907 5905 5902 5901 5902 5899 5896 5894 5892 5896 5898 5900 5902 5902 5902 5903 5903 5904 5904 5903 5903 5903 5903 5903 5903 5902 5902 5902 5901 5900 5900 5899 5899 5898 5898 5897 5897 5896 5896 5896 5896 5895 5895 5895 5895
5900 5901 5902 5904 5905 5904 5899 5897 5898 5897 5893 5894 5894 5894 5896 5897 5899 5900 5900 5901 5901 5901 5901 5901 5901 5901 5900 5900 5900 5900 5899 5899 5898 5897 5896 5896 5895 5895 5894 5894 5893 5893 5892 5892 5892 5892 5892 5892 5892
5896 5897 5898 5900 5901 5900 5895 5891 5891 5892 5890 5890 5890 5891 5892 5893 5895 5897 5898 5898 5898 5899 5898 5898 5898 5898 5897 5897 5896 5896 5896 5895 5894 5893 5892 5892 5891 5890 5890 5889 5888 5888 5888 5888 5888 5888 5888 5888 5889
5892 5892 5894 5894 5893 5891 5888 5887 5887 5887 5884 5883 5884 5885 5888 5890 5893 5894 5895 5895 5895 5895 5895 5895 5895 5895 5894 5894 5893 5892 5892 5890 5889 5888 5888 5887 5886 5886 5885 5884 5883 5883 5883 5883 5884 5884 5884 5884 5884
5887 5888 5888 5887 5886 5885 5884 5884 5884 5882 5878 5870 5870 5877 5884 5888 5889 5890 5891 5891 5891 5891 5891 5891 5891 5891 5890 5890 5889 5888 5887 5886 5885 5884 5883 5883 5882 5881 5880 5879 5878 5878 5878 5878 5879 5879 5879 5879 5879
5884 5883 5882 5881 5880 5880 5880 5879 5878 5875 5872 5867 5868 5874 5880 5885 5887 5887 5887 5887 5888 5888 5888 5888 5887 5887 5887 5886 5885 5884 5883 5882 5881 5881 5880 5878 5877 5876 5875 5875 5874 5873 5873 5873 5873 5873 5873 5874 5874
5881 5880 5878 5877 5876 5876 5876 5876 5873 5869 5870 5871 5873 5876 5879 5881 5882 5883 5883 5883 5884 5884 5884 5884 5884 5884 5883 5882 5881 5880 5879 5878 5878 5876 5875 5874 5873 5872 5871 5870 5869 5868 5868 5868 5868 5868 5868 5868 5869
5880 5878 5876 5874 5873 5873 5873 5873 5869 5866 5867 5867 5870 5874 5877 5878 5879 5879 5879 5880 5881 5881 5881 5880 5880 5880 5880 5879 5878 5877 5876 5875 5874 5873 5872 5870 5869 5868 5867 5866 5865 5864 5864 5863 5863 5863 5863 5863 5864
5878 5876 5874 5873 5871 5869 5871 5871 5867 5864 5866 5867 5870 5872 5874 5875 5875 5876 5876 5876 5878 5878 5878 5877 5877 5877 5876 5876 5875 5873 5872 5871 5870 5869 5868 5867 5866 5864 5863 5862 5861 5860 5859 5859 5858 5858 5858 5858 5858
5878 5876 5873 5872 5870 5869 5871 5867 5862 5861 5864 5865 5867 5869 5871 5871 5872 5873 5874 5874 5875 5875 5875 5875 5874 5874 5873 5872 5871 5870 5869 5868 5867 5866 5865 5863 5862 5860 5858 5857 5857 5855 5854 5854 5853 5852 5853 5853 5853
5877 5875 5872 5871 5870 5869 5868 5863 5861 5860 5862 5863 5864 5866 5867 5868 5869 5870 5871 5872 5872 5872 5872 5872 5871 5871 5870 5869 5868 5867 5866 5864 5863 5862 5861 5859 5857 5856 5854 5853 5852 5850 5849 5848 5848 5847 5847 5847 5847
5880 5877 5875 5873 5871 5869 5866 5862 5860 5859 5859 5859 5861 5863 5864 5865 5866 5867 5868 5869 5869 5870 5869 5869 5869 5868 5868 5867 5866 5865 5863 5862 5860 5858 5857 5855 5853 5851 5849 5848 5847 5845 5844 5843 5842 5842 5841 5841 5841
5880 5877 5875 5873 5871 5868 5865 5861 5858 5856 5854 5856 5858 5859 5861 5862 5864 5865 5866 5866 5867 5867 5867 5867 5867 5866 5866 5865 5864 5862 5860 5859 5857 5855 5853 5851 5849 5847 5845 5843 5842 5840 5839 5838 5837 5836 5836 5835 5835
5879 5876 5874 5872 5870 5868 5865 5859 5856 5855 5852 5854 5857 5856 5857 5859 5861 5863 5864 5864 5865 5865 5866 5865 5865 5864 5864 5862 5861 5859 5857 5855 5853 5851 5849 5847 5845 5843 5841 5839 5837 5836 5834 5833 5832 5831 5830 5829 5829
5878 5876 5874 5872 5869 5867 5864 5862 5858 5856 5854 5854 5855 5855 5856 5858 5859 5861 5861 5862 5863 5863 5863 5863 5863 5862 5861 5860 5858 5856 5854 5852 5850 5848 5846 5844 5841 5839 5837 5835 5833 5832 5830 5829 5827 5826 5825 5823 5823
5877 5875 5873 5870 5868 5865 5863 5860 5859 5858 5856 5854 5855 5855 5857 5857 5858 5859 5860 5861 5861 5862 5861 5861 5861 5860 5859 5857 5855 5853 5851 5849 5847 5844 5842 5840 5838 5836 5834 5832 5830 5828 5826 5824 5823 5821 5819 5818 5817
5875 5873 5871 5868 5865 5863 5861 5859 5859 5858 5857 5855 5856 5856 5857 5857 5858 5859 5859 5859 5860 5860 5859 5859 5858 5857 5856 5854 5852 5850 5848 5846 5843 5841 5839 5837 5835 5832 5830 5828 5825 5823 5821 5819 5817 5815 5814 5812 5811
5874 5872 5869 5865 5862 5860 5861 5860 5859 5858 5858 5856 5857 5857 5857 5857 5858 5858 5858 5858 5858 5858 5857 5857 5856 5854 5853 5851 5849 5847 5845 5842 5840 5838 5835 5833 5831 5828 5826 5824 5821 5819 5816 5814 5812 5809 5807 5806 5804
5873 5872 5868 5863 5860 5860 5862 5862 5861 5860 5860 5859 5858 5857 5857 5857 5857 5857 5857 5856 5856 5856 5855 5854 5853 5852 5850 5848 5846 5844 5842 5839 5837 5834 5832 5829 5827 5824 5822 5819 5816 5813 5811 5808 5805 5803 5801 5798 5796
5871 5871 5870 5867 5865 5863 5861 5861 5860 5860 5860 5859 5858 5858 5857 5857 5856 5856 5855 5855 5854 5853 5852 5851 5850 5849 5847 5845 5843 5841 5839 5836 5834 5831 5828 5826 5822 5819 5816 5813 5811 5808 5805 5802 5799 5796 5793 5791 5788
5869 5869 5868 5868 5866 5864 5861 5860 5859 5859 5859 5859 5858 5857 5856 5855 5855 5854 5853 5853 5852 5851 5850 5848 5847 5846 5844 5842 5840 5838 5835 5833 5830 5827 5824 5821 5818 5815 5811 5808 5805 5802 5798 5795 5791 5788 5785 5782 5780
5867 5866 5867 5866 5864 5863 5860 5858 5858 5857 5857 5857 5856 5855 5854 5854 5853 5852 5851 5850 5849 5848 5847 5846 5844 5843 5841 5840 5837 5835 5833 5830 5827 5824 5820 5817 5813 5810 5806 5802 5799 5795 5791 5787 5783 5780 5777 5773 5770
5864 5865 5864 5864 5864 5863 5859 5858 5854 5856 5856 5855 5854 5853 5852 5851 5850 5849 5848 5847 5847 5846 5844 5843 5842 5840 5838 5836 5834 5832 5829 5826 5823 5820 5816 5812 5809 5804 5800 5796 5792 5788 5783 5779 5775 5771 5767 5763 5760
5861 5862 5862 5862 5862 5862 5861 5861 5855 5855 5854 5853 5853 5851 5850 5849 5847 5846 5846 5845 5844 5843 5842 5840 5839 5837 5835 5833 5831 5828 5825 5822 5819 5815 5811 5807 5803 5799 5794 5789 5785 5780 5775 5770 5766 5761 5757 5753 5750